Home > Time Zones > World Clock > Weather > Russia > Ufa > Past weeks

Flag for Russia Weather past 2 weeks in Ufa, Russia

Now
70 °F

Sprinkles. Partly sunny.


Feels Like: 70 °F
Forecast: 55 / 74 °F
Wind: 10 mph from Southeast

Location: Ufa

Current Time: May 4, 2015 at 2:14:26 PM

Latest Report: May 4, 2015 at 1:30 PM


Visibility: N/A

Pressure: 29.77 "Hg

Humidity: 57%

Dew point: 54 °F

Location of UfaLocation

Historic Weather in Ufa — Graph

°F

Ufa temperature yesterday

Maximum temperature yesterday: 77 °F (at 4:00 PM)
Minimum temperature yesterday: 46 °F (at 6:00 AM)
Average temperature yesterday: 63 °F

Past Weeks' High & Low Weather Summary

 TemperatureHumidityPressure
High79 °F (Apr 30, 3:30 PM)100% (Apr 20, 8:00 AM)30.21 "Hg (Apr 20, 8:00 AM)
Low27 °F (Apr 28, 4:30 AM)24% (Apr 30, 4:30 PM)29.27 "Hg (Apr 20, 3:00 PM)
Average49 °F70%29.83 "Hg
* Reported Apr 19 1:00 PM — May 4 1:00 PM, Ufa, Weather by CustomWeather, © 2015

Note: Actual official high and low records may vary slightly from our data, if they occured in-between our weather recording intervals... More about our weather records

Advertising

Ufa weather history for previous 24 hours

 ConditionsComfort  
Time TempWeatherWind HumidityBarometerVisibility
1:00 PM
Mon, May 4
68 °FSprinkles. Partly sunny.10 mph60%29.77 "HgN/A
12:30 PM68 °FPartly sunny.10 mph56%29.77 "HgN/A
12:00 PM68 °FPartly sunny.10 mph56%29.77 "HgN/A
11:30 AM66 °FPartly sunny.10 mph60%29.77 "HgN/A
11:00 AM66 °FPartly sunny.10 mph60%29.80 "HgN/A
10:30 AM64 °FPartly sunny.8 mph68%29.80 "HgN/A
10:00 AM61 °FSprinkles. Partly sunny.10 mph77%29.80 "HgN/A
9:30 AM59 °FPartly sunny.6 mph82%29.80 "HgN/A
8:30 AM55 °FSprinkles. Overcast.8 mph94%29.83 "Hg2 mi
8:00 AM55 °FSprinkles. Overcast.10 mph88%29.83 "Hg2 mi
7:30 AM55 °FSprinkles. Overcast.8 mph88%29.83 "HgN/A
7:00 AM55 °FSprinkles. Overcast.8 mph88%29.83 "HgN/A
6:30 AM57 °FSprinkles. Overcast.13 mph77%29.86 "HgN/A
6:00 AM57 °FSprinkles. Overcast.8 mph77%29.86 "HgN/A
5:30 AM59 °FOvercast.8 mph68%29.86 "HgN/A
5:00 AM59 °FOvercast.6 mph68%29.86 "HgN/A
4:30 AM57 °FOvercast.8 mph72%29.89 "HgN/A
4:00 AM57 °FOvercast.6 mph72%29.89 "HgN/A
3:30 AM59 °FOvercast.6 mph68%29.89 "HgN/A
3:00 AM59 °FSprinkles. Overcast.6 mph68%29.89 "HgN/A
2:30 AM61 °FOvercast.8 mph59%29.92 "HgN/A
1:30 AM61 °FPassing clouds.8 mph55%29.92 "HgN/A
1:00 AM59 °FPassing clouds.6 mph63%29.92 "HgN/A
12:30 AM63 °FPassing clouds.6 mph52%29.92 "HgN/A
12:00 AM61 °FPassing clouds.3 mph59%29.95 "Hg3 mi
11:30 PM
Sun, May 3
59 °FPassing clouds.3 mph63%29.95 "Hg3 mi
11:00 PM59 °FPassing clouds.1 mph59%29.95 "HgN/A
10:30 PM59 °FScattered clouds.1 mph59%29.95 "HgN/A
10:00 PM59 °FPartly sunny.1 mph59%29.95 "HgN/A
9:30 PM63 °FPartly sunny.3 mph49%29.95 "HgN/A
9:00 PM64 °FPartly sunny.6 mph49%29.98 "HgN/A
8:30 PM68 °FPartly sunny.10 mph40%29.95 "HgN/A
8:00 PM72 °FPartly sunny.15 mph36%29.98 "HgN/A
7:30 PM72 °FPartly sunny.13 mph33%29.98 "HgN/A
7:00 PM72 °FBroken clouds.15 mph33%29.98 "HgN/A
6:30 PM73 °FBroken clouds.15 mph31%29.98 "HgN/A
6:00 PM75 °FBroken clouds.20 mph29%29.98 "HgN/A
5:30 PM75 °FBroken clouds.17 mph27%29.98 "HgN/A
5:00 PM75 °FBroken clouds.17 mph25%29.98 "HgN/A
4:30 PM75 °FBroken clouds.17 mph27%29.98 "HgN/A
4:00 PM77 °FBroken clouds.17 mph28%30.01 "HgN/A
3:30 PM75 °FBroken clouds.22 mph27%30.01 "HgN/A
3:00 PM75 °FScattered clouds.20 mph27%30.01 "HgN/A
2:30 PM75 °FScattered clouds.15 mph29%30.04 "HgN/A
2:00 PM75 °FScattered clouds.20 mph27%30.04 "HgN/A
Weather by CustomWeather, © 2015

See weather overviewHow to use our weather pages